www.pogodaiklimat.ru

Погода и климат >> Архив погоды >> Казахстан >> Семей


АРХИВ ПОГОДЫ в Семее

Время (UTC), дата Ветер
(напр.,м/с)
 
Видим.   Явления Облачность Т
(С)
Тd
(С)
f
(%)
Тe
(С)
Тes
(С)
Комфортность P
(гПа)
Po
(гПа)
Тmin
(С)
Tmax
(С)
R
(мм)
R24
(мм)
S
(см)
00 12.09 З 1 н/о 4/3 1000 м
[Sc Ac trans]
+6.0 +3.9 86 +5 +5 по сезону 1029.5 1005.3
03 12.09 штиль 0 200 м туман ?/? +6.2 +5.5 95 +5 +5 холодно 1030.8 1006.6
06 12.09 штиль 0 10 км {туман} 4/4 1000 м
[Cu med, cong]
+13.3 +5.1 58 +13 +21 холодно 1029.8 1006.2 +5.7
09 12.09 З 3 10 км 6/6 1000 м
[Cu med, cong]
+16.6 +2.4 38 +16 +19 прохладно 1027.7 1004.4
12 12.09 З 2 10 км 4/3 1000 м
[Cu hum Ci fib]
+16.0 +2.7 41 +16 +16 прохладно 1026.3 1003.0
15 12.09 З 1 н/о 6/4 1000 м
[Sc Ac trans Ci fib]
+10.7 +4.5 65 +11 +11 прохладно 1026.0 1002.3 +17.1
18 12.09 З 1 н/о 9/6 1000 м
[Sc Ac trans Ci fib]
+7.3 +2.7 73 +7 +7 по сезону 1025.3 1001.3 +17.1
21 12.09 З 1 н/о 8/6 1000 м
[Sc Ac trans]
+5.8 +2.1 77 +5 +5 прохладно 1023.6 999.5
00 13.09 З 2 н/о 9/3 1000 м
[Sc Ac trans Ci fib]
+1.8 -1.3 80 -1 -1 холодно 1023.3 998.9
03 13.09 В 1 10 км 9/3 1000 м
[Sc Ac trans Ci fib]
+8.2 +1.9 64 +8 +9 прохладно 1022.4 998.6
06 13.09 штиль 0 10 км 9/6 1000 м
[Cu med, cong Ac trans]
+18.6 +1.6 32 +19 +21 тепло 1020.5 997.5 +1.6
09 13.09 штиль 0 10 км 9/8 600 м
[Cb calv Ac trans]
+19.3 -0.7 26 +19 +21 по сезону 1019.3 996.4
12 13.09 штиль 0 10 км 9/9 1000 м
[Sc]
+18.7 +7.3 47 +19 +19 по сезону 1018.8 995.9
15 13.09 ЮЗ 1 н/о в посл. час ливневой дождь 10/10 600 м
[Cb calv]
+14.6 +10.0 74 +15 +15 по сезону 1020.2 997.0 +20.7
18 13.09 СЗ 1 н/о {ливн. осадки} 9/9 600 м
[Cb calv]
+11.4 +9.8 90 +11 +11 по сезону 1021.2 997.7 +20.7 0.3
21 13.09 З 1 н/о 9/4 1000 м
[Sc Ac trans Ci fib]
+10.3 +8.9 91 +10 +10 тепло 1021.1 997.5
00 14.09 СЗ 1 н/о {ливн. осадки} 10/10 600 м
[Cb calv]
+10.5 +9.5 94 +10 +10 тепло 1021.6 998.0
03 14.09 штиль 0 4000 м дымка 10/10 600 м
[Cb calv]
+12.2 +10.7 91 +12 +12 по сезону 1022.2 998.7
06 14.09 З 1 10 км 9/8 600 м
[Cb calv Ac trans]
+16.5 +10.3 67 +17 +19 по сезону 1021.7 998.6 +9.2 0.0
09 14.09 З 2 10 км 9/6 600 м
[Cb calv Ac trans]
+19.2 +8.4 50 +21 +22 комфорт 1020.1 997.2
12 14.09 ЮЗ 1 10 км 9/8 1000 м
[Sc Ac trans]
+19.0 +7.7 48 +21 +21 комфорт 1019.6 996.7
15 14.09 штиль 0 н/о 9/9 1000 м
[Sc]
+13.0 +8.8 76 +13 +13 по сезону 1020.5 997.1 +19.5
18 14.09 штиль 0 н/о 3/0
[Ac trans]
+8.1 +5.7 85 +7 +7 по сезону 1020.5 996.7 +19.5
21 14.09 штиль 0 н/о 8/6 1000 м
[Sc Ac trans]
+5.5 +3.4 86 +5 +5 по сезону 1020.2 996.2
00 15.09 штиль 0 н/о 6/0
[Ac trans Ci fib]
+3.9 +1.9 87 +3 +3 по сезону 1020.5 996.3
03 15.09 штиль 0 10 км 8/0
[Ac trans]
+11.9 +7.8 76 +11 +14 по сезону 1020.1 996.6
06 15.09 ЮЗ 1 10 км 8/0
[Ac trans Ci fib]
+20.3 +7.5 44 +22 +29 комфорт 1018.9 996.1 +3.9
09 15.09 З 2 10 км 6/4 1000 м
[Cu hum Ci fib]
+23.7 +7.6 36 +24 +28 комфорт 1017.3 994.8
12 15.09 С 1 10 км 8/6 600 м
[Cb calv Ac trans]
+22.0 +6.8 37 +23 +23 комфорт 1017.4 994.8
15 15.09 С 1 н/о 9/3 600 м
[Cb calv Ac trans Ci fib]
+16.9 +10.3 65 +18 +18 тепло 1018.7 995.7 +24.0
18 15.09 С 2 н/о 8/1 600 м
[Cb calv Ac trans Ci fib]
+12.3 +8.7 79 +11 +11 тепло 1019.3 995.9 +24.0
21 15.09 С 2 н/о 8/1 600 м
[Cb calv Ac trans Ci fib]
+12.3 +8.7 79 +11 +11 тепло 1019.3 995.9
00 16.09 С 1 н/о 4/3 1000 м
[Sc Ac trans]
+6.0 +3.1 82 +5 +5 по сезону 1020.3 996.3
03 16.09 В 1 4000 м дымка 6/0
[Ac trans Ci fib]
+13.6 +8.2 70 +14 +17 тепло 1019.7 996.4
06 16.09 Ю 2 10 км 3/0
[Ci fib]
+21.2 +5.9 37 +22 +30 комфорт 1017.7 995.0 +5.3
09 16.09 ЮВ 1 10 км 8/6 1000 м
[Cu hum Ac trans Ci fib]
+23.8 +3.6 27 +23 +26 комфорт 1015.5 993.1
12 16.09 штиль 0 10 км 9/4 1000 м
[Cu med, cong Ac trans Ci fib]
+23.3 +6.4 34 +24 +24 комфорт 1014.7 992.2
15 16.09 штиль 0 н/о 8/0
[Ac trans Ci fib]
+12.5 +6.7 68 +12 +12 по сезону 1015.9 992.6 +25.2
18 16.09 штиль 0 н/о 9/0
[Ac trans Ci fib]
+8.6 +7.3 92 +8 +8 по сезону 1016.3 992.7 +25.2
21 16.09 В 1 н/о 10/10 1000 м
[Sc]
+10.0 +7.7 86 +10 +10 тепло 1016.0 992.5
00 17.09 ЮВ 1 н/о 10/10 600 м
[Cb calv]
+10.9 +8.5 85 +11 +11 тепло 1017.1 993.6
03 17.09 Ю 1 10 км в посл. час ливневой дождь 10/10 600 м
[Cb calv]
+14.5 +11.5 82 +15 +15 тепло 1018.5 995.3
06 17.09 Ю 2 10 км {ливн. осадки} 9/3 600 м
[Cb calv Ac trans Ci fib]
+23.0 +7.6 37 +24 +28 комфорт 1018.2 995.7 +8.3 0.3
09 17.09 Ю 3 10 км 8/6 1000 м
[Cu hum Ac trans Ci fib]
+25.3 +6.8 31 +25 +27 комфорт 1017.3 994.9
12 17.09 З 1 10 км 9/6 600 м
[Cb calv Ac trans]
+21.7 +9.2 45 +23 +23 комфорт 1017.9 995.3
15 17.09 штиль 0 н/о 6/3 1000 м
[Sc Ac trans]
+18.9 +9.5 54 +19 +19 тепло 1019.5 996.6 +25.3
18 17.09 штиль 0 н/о 9/8 1000 м
[Sc Ac trans]
+15.7 +9.1 65 +16 +16 тепло 1020.0 996.9 +25.3 0.0
21 17.09 штиль 0 н/о 10/10 1000 м
[Sc]
+14.8 +9.4 70 +15 +15 тепло 1020.0 996.8
00 18.09 Ю 1 н/о 9/9 1000 м
[Sc]
+15.3 +10.2 72 +16 +16 тепло 1020.5 997.3
03 18.09 Ю 2 10 км 8/0
[Ac trans]
+19.9 +8.4 47 +22 +23 комфорт 1020.8 998.0
06 18.09 ЮЗ 4 10 км 9/0
[Ac trans Ci fib]
+27.5 +7.1 27 +27 +30 жарко 1019.2 997.0 +14.4
09 18.09 ЮЗ 4 10 км 6/4 1000 м
[Cu hum Ac trans Ci fib]
+28.9 +4.7 21 +27 +29 жарко 1017.8 995.7
12 18.09 Ю 2 10 км 9/6 1000 м
[Sc diur, vesp Ac trans Ci fib]
+25.9 +7.8 32 +26 +26 жарко 1017.3 995.0
15 18.09 ЮЗ 2 н/о 9/4 1000 м
[Sc Ac trans Ci fib]
+19.8 +8.3 47 +21 +21 комфорт 1017.7 994.9 +29.5
18 18.09 ЮЗ 2 н/о 8/3 1000 м
[Sc Ac trans]
+16.9 +9.9 63 +17 +17 тепло 1017.2 994.2 +29.5
21 18.09 З 2 н/о 8/3 1000 м
[St Ac trans]
+14.2 +7.3 63 +14 +14 тепло 1017.4 994.2

 

Местоположение метеостанции Семей (Восточно-Казахстанская область, Казахстан): широта 50.42 долгота 80.30 высота над уровнем моря 196 м.

В архиве по умолчанию представлена погода в Семее за последнюю неделю. Архивные данные за месяц целиком и за предыдущие месяцы, начиная с января 2011 года, Вы можете получить, выбрав интересующий диапазон дат из раскрывающегося списка и нажав кнопку "Ввод!".


*Определитесь, кто Вы:
робот инопланетянин человек

Внимание! Время в таблицах - всемирное. Для получения местного времени необходимо прибавить поправку, которая равна 6 ч.

Смотрите также архив погоды в соседних городах и на ближайших метеорологических станциях:

Погода в Шульбинске (Восточно-Казахстанская область, Казахстан) (51 км)
Погода в Дмитриевке (Восточно-Казахстанская область, Казахстан) (54 км)
Погода в Новониколаевке (Восточно-Казахстанская область, Казахстан) (98 км)
Погода в Горняке (Алтайский край, Россия) (104 км)
Погода в Угловском (Алтайский край, Россия) (106 км)
Погода в Шаре (Восточно-Казахстанская область, Казахстан) (108 км)
Погода в Шемонаихе (Восточно-Казахстанская область, Казахстан) (117 км)
Погода в Шалабае (Восточно-Казахстанская область, Казахстан) (118 км)
Погода в Первомайском (Восточно-Казахстанская область, Казахстан) (122 км)
Погода в Таврии (Восточно-Казахстанская область, Казахстан) (127 км)

Пояснения к столбцам:

Ветер - указаны скорость ветра в м/с - средняя за 10 мин, порывы в срок и между сроками (в фигурных скобках) и направление, откуда дует ветер: С - северный, СВ - северо-восточный, В - восточный, ЮВ - юго-восточный, Ю - южный, ЮЗ - юго-западный, З - западный, СЗ - северо-западный.
Видимость - горизонтальная дальность видимости в метрах или километрах. При видимости от 1 до 10 км при отсутствии осадков обычно наблюдается дымка, при ухудшении видимости до 1 км и менее - туман. В сухую погоду видимость может ухудшаться дымом, пылью или мглою.
Явления - указаны атмосферные явления, наблюдавшиеся в срок или в последний час перед сроком; фигурными скобками обозначены явления, наблюдавшиеся между сроками (за 1-3 часа до срока); квадратными скобками обозначены град или гололедные отложения с указанием их диаметра в мм.
Облачность - указаны через наклонную черту общая и нижняя облачность в баллах и высота нижней границы облаков в метрах; квадратными скобками обозначены формы облаков: Ci - перистые, Cs - перисто-слоистые, Cc - перисто-кучевые, Ac - высококучевые, As - высокослоистые, Sc - слоисто-кучевые, Ns - слоисто-дождевые, Cu - кучевые, Cb - кучево-дождевые. Подробнее классификацию облаков см. в Атласе облаков (PDF).
T - Температура воздуха - температура, измеренная на высоте 2 м над землей.
Td - Температура точки росы - температура, при понижении до которой содержащийся в воздухе водяной пар достигнет насыщения.
f - Относительная влажность воздуха - влажноcть воздуха, измеренная на высоте 2 м над землей.
Te - Эффективная температура - температура, которую ощущает одетый по сезону человек в тени. Характеристика душности погоды. При расчете учитывается влияние влажности воздуха и скорости ветра на теплоощущения человека.
Tes - Эффективная температура на солнце - температура, которую ощущает человек, с поправкой на солнечный нагрев. Характеристика знойности погоды. Зависит от высоты солнца над горизонтом, облачности и скорости ветра. Ночью, в пасмурную погоду, а также при ветре 12 м/с и более поправка равна нулю.
P - Атмосферное давление - приведенное к уровню моря атмосферное давление.
Po - Атмосферное давление - измеренное на уровне метеостанции атмосферное давление.
Tmin - Минимальная температура - минимум температуры воздуха на высоте 2 м над землей.
Tmax - Максимальная температура - максимум температуры воздуха на высоте 2 м над землей.
R - Количество осадков - Количество выпавших осадков за период времени, мм. При наведении курсора мыши на число - период времени, за который выпало указанное количество осадков.
R24 - Количество осадков - Количество выпавших осадков за 24 часа, мм.
S - Снежный покров - Высота снежного покрова, см. При наведении курсора мыши на число - состояние снежного покрова и степень покрытия местности в баллах.